Weather in Arezzo

Italy     43°27′37″N   11°51′40″E
temp.,
°C
wind,
m/s
gust,
m/s
humid.,
%
clouds,
%
prec.,
mm/h
press.,
hPa
HPBL,
m
21 june, mon
mon2123:00+20ne1167100 0.0 101211
02:00+18w11736 0.0 101111
05:00+17ne117791 0.0 101111
08:00+21ssw22610 0.0 1012235
11:00+27sw24470 0.0 10111060
14:00+31sw46350 0.0 10101857
17:00+31ssw77375 0.0 10091146
20:00+26wsw36525 0.0 1010255
22 june, tue
tue2223:00+19wnw22710 0.0 101114
02:00+17ese00805 0.0 101211
05:00+16ne11875 0.0 101211
08:00+21sse11730 0.0 1013242
11:00+27ssw24490 0.0 10121249
14:00+32wsw47310 0.0 10112100
17:00+33sw78225 0.0 10112199
20:00+26wnw36480 0.0 1012154
23 june, wed
wed2323:00+19nw22620 0.0 101415
02:00+16n11610 0.0 101511
05:00+16nne11580 0.0 101411
08:00+22e11420 0.0 1015160
11:00+30sse23285 0.0 1014916
14:00+32wsw3327100 0.3 10141058
17:00+33w5525100 0.1 10131750
20:00+28w11411 0.1 101413
24 june, thu
thu2423:00+20wsw11540 0.0 101511
02:00+18w01630 0.0 101711
05:00+16ne11690 0.0 101711
08:00+21s115298 0.0 1017218
11:00+28ssw353594 0.0 10181214
14:00+32sw583095 0.0 10161917
17:00+32sw7828100 0.0 10152208
20:00+25wnw3644100 0.0 1016351
25 june, fri
fri2523:00+18w2262100 0.0 101912
02:00+16w22675 0.0 101815
05:00+14nne118356 0.0 101811
08:00+19se11620 0.0 1018254
11:00+26wsw23360 0.0 10171407
14:00+30wsw46260 0.0 10152613
17:00+30wnw87230 0.0 10142301
20:00+24wnw58420 0.0 1015527